Content
SEND FEEDBACK

Daily
Averages
Monthly
Summary
United States of America

ST. LOUIS, MISSOURI


Home > North America > United States > Missouri
Elevation: 163 meters     Latitude: 38 45N     Longitude: 090 22W

WEATHER
 
SELECT A DAY
Number of Records: 196,395;   Date Range: 1/1/95 - 7/29/14
 
SHARE

PRINT THIS DATA

[ ← Previous Day ]
WEATHER ALMANAC - 10 MAY, 2013
[ Next Day → ]
[ °F ]   °C
Weather ElementAverageHighLow
Temperature16.2 °C18.3 °C (9:54 am)13.3 °C (10:54 pm)
Dewpoint12.7 °C15 °C (1:54 am)10 °C (9:54 pm)
Humidity79.9 %90 % (5:54 am)70 % (1:54 pm)
Barometer1013.2 hPa1016.3 hPa (10:36 pm)1010.2 hPa (2:54 am)
Wind Speed12.7 km/h22.2 km/h (11:54 am)
Wind Gust29.6 km/h (4:26 pm)
Weather ElementAverage
Visibility15.6 km
Wind DirectionWNW (288.1 °)

Weather ElementTotal
Precipitation---
Heating Degree Days2.6 (Base 18.3)
Growing Degree Days5.8 (Base 10)
Averaged from 31 records on 10 May, 2013
WEATHER CONDITIONS BREAKOUT
WIND DIRECTION BREAKOUT
WEATHER BY HOUR - 10 MAY, 2013
[ °F ]   °C
Local TimeTemperatureDewpointHumidityBarometerVisibilityWind DirectionWind SpeedGust SpeedPrecipitationEventsConditions
1:54 AM17.8 °C15 °C84 %1011.2 hPa16.1 kmCalm0 mmPartly Cloudy
2:54 AM17.2 °C14.4 °C84 %1010.2 hPa16.1 kmSW (230°)7.4 km/hClear
3:54 AM16.7 °C14.4 °C86 %1010.5 hPa16.1 kmWSW (250°)9.3 km/hClear
4:54 AM16.1 °C13.9 °C87 %1010.5 hPa16.1 kmSW (230°)5.6 km/hClear
5:54 AM15 °C13.3 °C90 %1010.8 hPa16.1 kmSW (220°)5.6 km/hMostly Cloudy
6:54 AM16 °C14 °C88 %1011.9 hPa16.1 kmCalmOvercast
7:54 AM17 °C14 °C82 %1011.9 hPa16.1 kmWest (260°)9.3 km/hMostly Cloudy
8:54 AM17.8 °C14.4 °C80 %1012.2 hPa16.1 kmNNW (340°)11.1 km/hMostly Cloudy
9:23 AM18 °C14 °C77 %1012.5 hPa16.1 kmNNW (340°)11.1 km/hOvercast
9:54 AM18.3 °C14.4 °C78 %1012.2 hPa16.1 kmNNW (330°)13 km/hOvercast
10:54 AM17.8 °C13.9 °C78 %1012.9 hPa16.1 kmNNW (330°)14.8 km/hOvercast
11:54 AM18 °C14 °C77 %1013.2 hPa16.1 kmNW (320°)22.2 km/hOvercast
12:54 PM17.8 °C12.8 °C73 %1012.9 hPa16.1 kmWNW (300°)16.7 km/hOvercast
1:54 PM18.3 °C12.8 °C70 %1012.9 hPa16.1 kmWNW (300°)11.1 km/hOvercast
2:54 PM17.8 °C12.8 °C73 %1013.5 hPa16.1 kmWNW (290°)16.7 km/hOvercast
3:01 PM18 °C13 °C73 %1013.5 hPa16.1 kmWNW (300°)16.7 km/hOvercast
3:20 PM17 °C13 °C77 %1013.5 hPa16.1 kmNW (320°)20.4 km/hOvercast
3:54 PM15.6 °C13.3 °C86 %1013.9 hPa16.1 kmNW (310°)18.5 km/h0 mmOvercast
4:26 PM16 °C13 °C82 %1013.9 hPa9.7 kmNNW (340°)18.5 km/h29.6 km/hHaze
4:54 PM15 °C13 °C88 %1014.2 hPa6.4 kmNW (320°)18.5 km/hOvercast
5:54 PM15.6 °C12.2 °C80 %1014.2 hPa16.1 kmNW (320°)20.4 km/h29.6 km/hOvercast
6:51 PM16 °C12 °C77 %1014.9 hPa16.1 kmNNW (330°)9.3 km/hOvercast
6:54 PM15.6 °C11.7 °C78 %1014.6 hPa16.1 kmNNW (340°)11.1 km/hOvercast
7:07 PM15 °C12 °C82 %1014.9 hPa16.1 kmNW (320°)14.8 km/hOvercast
7:40 PM15 °C11 °C77 %1014.6 hPa16.1 kmNNW (340°)14.8 km/h0 mmOvercast
7:54 PM15 °C11.1 °C78 %1014.6 hPa16.1 kmNNW (330°)16.7 km/h0 mmOvercast
8:54 PM14.4 °C10.6 °C78 %1014.9 hPa16.1 kmNNW (340°)14.8 km/hOvercast
9:54 PM13.9 °C10 °C77 %1015.6 hPa16.1 kmNW (320°)9.3 km/hOvercast
10:36 PM14 °C10 °C77 %1016.3 hPa16.1 kmNW (320°)14.8 km/hOvercast
10:54 PM13.3 °C10 °C80 %1015.9 hPa16.1 kmNW (320°)13 km/hOvercast
11:54 PM13.3 °C10 °C80 %1015.9 hPa16.1 kmNW (320°)9.3 km/hOvercast
Hourly data recorded from KSUS, located 0 kilometers away from St. Louis, Missouri







STORIES FROM OUR PARTNERS